カタログに戻る

TITAN 4B CENTAUR R/B

運用中MEO
NORAD 25349·ROCKET BODY·🇺🇸 United States

打ち上げ Apr 24, 1996 から Cape Canaveral Space Force Station

Loading…

次のパス (今後24時間)

TLE

最新Source: Space-Track

元期: Sep 14, 2026, 09:41 UTC

1 25349U 96026B   26257.40416414  .00000026  00000-0  00000+0 0  9999
2 25349   6.8359 350.6583 0445405  39.6114 323.5501  0.99564416 26520

AllMySatでTITAN 4B CENTAUR R/Bをリアルタイム追跡

Download on the App Store